Вернуться в каталог

FENGYUN 2F AKM

АктивенGEO
NORAD 38072·ROCKET BODY·🇨🇳 China

Запущен Jan 13, 2012 с Xichang Satellite Launch Center

Loading…

TLE

СвежийSource: Space-Track

Эпоха: Sep 14, 2026, 10:50 UTC

1 38072U 12002C   26257.45205795 -.00000133  00000-0  00000-0 0  9992
2 38072   9.3727  56.8411 0062488 207.8579 350.1938  0.99392415 52728

Отслеживайте FENGYUN 2F AKM в реальном времени с AllMySat

Download on the App Store